CW9825 Weather Reports


time (UTC)temp
C
wind
direction
speed
KPH
gust
KPH
rain 1hr
cm
rain 24hr
cm
rain mn
cm
humidity
%
barometer
mb
20260509053516 8 11 4.8 9.7 0.00 0.00 0.00 89 1002.6
20260509053016 8 346 3.2 12.9 0.00 0.00 0.00 89 1002.8
20260509052514 8 360 4.8 12.9 0.00 0.00 0.00 89 1002.8
20260509052014 8 340 3.2 12.9 0.00 0.00 0.00 89 1002.8
20260509051514 8 15 3.2 12.9 0.00 0.00 0.00 89 1002.8
20260509051014 8 5 4.8 16.1 0.00 0.00 0.00 88 1002.7
20260509050512 8 342 6.4 17.7 0.00 0.00 0.00 88 1003.0
20260509050012 8 351 4.8 19.3 0.00 0.00 0.00 88 1003.0
20260509045513 8 340 9.7 19.3 0.00 0.00 0.00 88 1003.3
20260509045010 8 34 9.7 20.9 0.00 0.00 0.00 89 1003.0
20260509044510 8 351 8.0 22.5 0.00 0.00 0.00 88 1003.3
20260509044015 8 344 11.3 29.0 0.00 0.00 0.00 88 1003.4
20260509043510 8 348 12.9 32.2 0.00 0.00 0.00 88 1003.4
20260509043009 8 355 12.9 32.2 0.00 0.00 0.00 87 1003.6
20260509042512 8 331 19.3 30.6 0.00 0.00 0.00 87 1003.8
20260509042014 9 321 16.1 33.8 0.00 0.00 0.00 86 1003.9
20260509041508 9 323 19.3 41.8 0.00 0.00 0.00 85 1003.9
20260509041007 10 341 19.3 41.8 0.00 0.00 0.00 84 1003.8
20260509040508 10 346 20.9 35.4 0.00 0.00 0.00 85 1003.8
20260509040008 10 355 17.7 29.0 0.00 0.00 0.00 86 1003.5
20260509035508 10 338 16.1 33.8 0.00 0.00 0.00 86 1003.4
20260509035008 10 355 16.1 33.8 0.00 0.00 0.00 86 1003.5
20260509034507 10 344 14.5 33.8 0.00 0.00 0.00 85 1003.5
20260509034006 10 323 19.3 45.1 0.00 0.00 0.00 84 1003.6
20260509033506 10 348 20.9 45.1 0.00 0.00 0.00 82 1003.6
20260509033005 11 355 20.9 37.0 0.00 0.00 0.00 80 1003.7
20260509032504 12 331 20.9 33.8 0.00 0.00 0.00 75 1003.5
20260509032002 12 276 17.7 33.8 0.00 0.00 0.00 73 1003.1
20260509031502 13 340 11.3 40.2 0.00 0.00 0.00 69 1002.8
20260509031104 13 278 19.3 40.2 0.00 0.00 0.00 66 1002.7
20260509030600 15 287 16.1 35.4 0.00 0.00 0.00 60 1002.4
20260509030101 15 296 16.1 35.4 0.00 0.00 0.00 52 1002.2
20260509025604 16 308 8.0 17.7 0.00 0.00 0.00 49 1001.8
20260509025058 16 304 6.4 16.1 0.00 0.00 0.00 47 1001.5
20260509024600 16 317 1.6 8.0 0.00 0.00 0.00 46 1000.9
20260509024057 16 279 4.8 8.0 0.00 0.00 0.00 45 1000.8
20260509023558 16 307 0.0 1.6 0.00 0.00 0.00 44 1000.5
20260509023109 16 307 0.0 0.0 0.00 0.00 0.00 44 1000.3
20260509022600 16 307 0.0 0.0 0.00 0.00 0.00 43 1000.1
20260509022056 16 307 0.0 1.6 0.00 0.00 0.00 43 1000.1
20260509021555 16 307 0.0 1.6 0.00 0.00 0.00 43 1000.2
20260509021054 16 307 0.0 1.6 0.00 0.00 0.00 42 1000.4
20260509020553 16 307 0.0 6.4 0.00 0.00 0.00 42 1000.4
20260509020059 16 307 0.0 6.4 0.00 0.00 0.00 42 1000.5
20260509015553 16 293 1.6 4.8 0.00 0.00 0.00 42 1000.7
20260509015055 16 292 0.0 4.8 0.00 0.00 0.00 42 1000.7
20260509014553 16 296 0.0 9.7 0.00 0.00 0.00 41 1000.8
20260509014051 16 296 1.6 12.9 0.00 0.00 0.00 40 1000.8
20260509013551 16 297 1.6 12.9 0.00 0.00 0.00 40 1000.9
20260509013055 17 317 1.6 16.1 0.00 0.00 0.00 40 1000.9
20260509012550 17 295 4.8 16.1 0.00 0.00 0.00 40 1000.9
20260509012050 17 338 4.8 16.1 0.00 0.00 0.00 39 1001.0
20260509011556 17 313 6.4 16.1 0.00 0.00 0.00 39 1001.0
20260509011049 17 284 4.8 22.5 0.00 0.00 0.00 39 1001.1
20260509010549 17 309 11.3 22.5 0.00 0.00 0.00 38 1001.0
20260509010052 17 331 9.7 29.0 0.00 0.00 0.00 38 1001.0
20260509005549 17 247 14.5 29.0 0.00 0.00 0.00 37 1001.0
20260509005047 18 324 14.5 25.7 0.00 0.00 0.00 37 1001.1
20260509004547 18 304 16.1 25.7 0.00 0.00 0.00 38 1001.2
20260509004048 18 320 8.0 25.7 0.00 0.00 0.00 38 1001.4
20260509003548 18 325 11.3 25.7 0.00 0.00 0.00 37 1001.4
20260509003047 18 329 11.3 19.3 0.00 0.00 0.00 37 1001.4
20260509002546 18 281 9.7 25.7 0.00 0.00 0.00 37 1001.4
20260509002046 18 318 11.3 25.7 0.00 0.00 0.00 37 1001.5
20260509001546 18 346 14.5 25.7 0.00 0.00 0.00 36 1001.5
20260509001046 18 281 11.3 27.4 0.00 0.00 0.00 36 1001.4
20260509000546 18 315 14.5 30.6 0.00 0.00 0.00 35 1001.6
20260509000044 18 292 11.3 33.8 0.00 0.00 0.00 36 1001.5
20260508235544 18 302 19.3 33.8 0.00 0.00 0.00 35 1001.5
20260508235043 18 337 17.7 33.8 0.00 0.00 0.00 35 1001.6
20260508234543 18 346 9.7 33.8 0.00 0.00 0.00 35 1001.6
20260508234046 18 290 16.1 33.8 0.00 0.00 0.00 35 1001.6
20260508233542 18 275 16.1 30.6 0.00 0.00 0.00 34 1001.7
20260508233042 18 261 8.0 29.0 0.00 0.00 0.00 35 1001.8
20260508232540 18 315 8.0 48.3 0.00 0.00 0.00 35 1001.9
20260508232040 18 327 16.1 48.3 0.00 0.00 0.00 35 1002.0
20260508231540 18 306 14.5 30.6 0.00 0.00 0.00 34 1002.1
20260508231039 18 329 14.5 30.6 0.00 0.00 0.00 34 1002.0
20260508230538 18 261 14.5 32.2 0.00 0.00 0.00 34 1002.1
20260508230043 18 254 16.1 32.2 0.00 0.00 0.00 35 1002.1
20260508225538 18 325 14.5 29.0 0.00 0.00 0.00 35 1002.3
20260508225038 18 314 9.7 27.4 0.00 0.00 0.00 34 1002.3
20260508224538 18 355 8.0 33.8 0.00 0.00 0.00 34 1002.3
20260508224038 18 319 16.1 33.8 0.00 0.00 0.00 34 1002.3
20260508223537 18 227 12.9 32.2 0.00 0.00 0.00 34 1002.3
20260508223036 18 329 16.1 38.6 0.00 0.00 0.00 34 1002.5
20260508222535 18 298 12.9 40.2 0.00 0.00 0.00 33 1002.4
20260508222035 18 274 25.7 40.2 0.00 0.00 0.00 33 1002.7
20260508221535 18 328 17.7 35.4 0.00 0.00 0.00 33 1002.6
20260508221034 18 296 11.3 37.0 0.00 0.00 0.00 33 1002.7
20260508220533 18 338 19.3 37.0 0.00 0.00 0.00 34 1002.7
20260508220034 17 336 12.9 37.0 0.00 0.00 0.00 34 1002.8
20260508215534 17 284 19.3 37.0 0.00 0.00 0.00 33 1002.9
20260508215034 18 263 14.5 37.0 0.00 0.00 0.00 32 1002.9
20260508214535 18 323 20.9 37.0 0.00 0.00 0.00 32 1003.0
20260508214033 18 272 16.1 38.6 0.00 0.00 0.00 33 1003.0
20260508213533 18 279 19.3 38.6 0.00 0.00 0.00 32 1003.1
20260508213039 18 253 17.7 40.2 0.00 0.00 0.00 32 1003.0
20260508212535 18 26 22.5 40.2 0.00 0.00 0.00 31 1003.0
20260508212032 18 315 17.7 38.6 0.00 0.00 0.00 33 1003.0
20260508211537 18 5 20.9 38.6 0.00 0.00 0.00 32 1003.0
20260508211034 18 213 19.3 41.8 0.00 0.00 0.00 32 1002.9
20260508210532 18 272 22.5 41.8 0.00 0.00 0.00 32 1003.0
20260508210031 18 325 24.1 40.2 0.00 0.00 0.00 32 1002.9
20260508205530 18 278 17.7 38.6 0.00 0.00 0.00 31 1003.0
20260508205030 18 327 17.7 38.6 0.00 0.00 0.00 32 1002.8
20260508204531 18 346 17.7 37.0 0.00 0.00 0.00 32 1002.8
20260508204032 18 325 16.1 46.7 0.00 0.00 0.00 31 1002.9
20260508203529 18 336 24.1 46.7 0.00 0.00 0.00 31 1002.9
20260508203035 18 323 25.7 46.7 0.00 0.00 0.00 33 1002.9
20260508202531 18 320 24.1 49.9 0.00 0.00 0.00 32 1002.9
20260508202029 18 355 29.0 49.9 0.00 0.00 0.00 32 1002.8
20260508201529 18 284 24.1 43.5 0.00 0.00 0.00 32 1002.8
20260508201028 18 321 24.1 45.1 0.00 0.00 0.00 31 1002.8
20260508200528 18 329 19.3 45.1 0.00 0.00 0.00 32 1002.8
20260508200117 18 311 24.1 38.6 0.00 0.00 0.00 32 1002.8
20260508195022 18 310 25.7 48.3 0.00 0.00 0.00 31 1002.8
20260508194530 18 296 24.1 54.7 0.00 0.00 0.00 32 1002.7
20260508194020 18 294 29.0 54.7 0.00 0.00 0.00 32 1002.7
20260508193520 18 290 11.3 41.8 0.00 0.00 0.00 32 1002.7
20260508193019 18 334 22.5 56.3 0.00 0.00 0.00 32 1002.7
20260508192521 18 290 17.7 56.3 0.00 0.00 0.00 31 1002.8
20260508192020 18 315 19.3 41.8 0.00 0.00 0.00 34 1002.6
20260508191526 18 312 20.9 41.8 0.00 0.00 0.00 34 1002.8
20260508191018 18 221 12.9 38.6 0.00 0.00 0.00 34 1002.7
20260508190518 18 231 17.7 46.7 0.00 0.00 0.00 34 1002.8
20260508190018 18 157 20.9 46.7 0.00 0.00 0.00 34 1002.7
20260508185517 18 342 20.9 45.1 0.00 0.00 0.00 33 1002.7
20260508185019 18 319 19.3 33.8 0.00 0.00 0.00 34 1002.6
20260508184518 19 334 19.3 35.4 0.00 0.00 0.00 32 1002.7
20260508184016 19 348 12.9 35.4 0.00 0.00 0.00 30 1002.5
20260508183517 19 278 16.1 46.7 0.00 0.00 0.00 29 1002.5
20260508183023 19 338 17.7 46.7 0.00 0.00 0.00 28 1002.4
20260508182517 19 297 14.5 45.1 0.00 0.00 0.00 28 1002.5
20260508182015 19 308 17.7 45.1 0.00 0.00 0.00 28 1002.5
20260508181514 19 260 11.3 33.8 0.00 0.00 0.00 28 1002.4
20260508181017 20 248 16.1 38.6 0.00 0.00 0.00 26 1002.5
20260508180514 19 302 14.5 38.6 0.00 0.00 0.00 28 1002.5
20260508180015 19 299 12.9 27.4 0.00 0.00 0.00 29 1002.5
20260508175512 19 294 12.9 29.0 0.00 0.00 0.00 27 1002.7
20260508175022 19 355 12.9 41.8 0.00 0.00 0.00 27 1002.7
20260508174513 19 259 19.3 41.8 0.00 0.00 0.00 28 1002.8
20260508174010 18 335 19.3 33.8 0.00 0.00 0.00 26 1002.8
20260508173509 19 276 14.5 27.4 0.00 0.00 0.00 26 1002.8
20260508173008 19 268 12.9 27.4 0.00 0.00 0.00 26 1002.9
20260508172512 18 268 9.7 27.4 0.00 0.00 0.00 28 1002.9
20260508172008 18 275 12.9 27.4 0.00 0.00 0.00 26 1003.1
20260508171506 18 266 8.0 20.9 0.00 0.00 0.00 27 1003.2
20260508171004 18 264 9.7 19.3 0.00 0.00 0.00 28 1003.2
20260508170504 18 285 8.0 20.9 0.00 0.00 0.00 29 1003.3
20260508170002 18 278 4.8 22.5 0.00 0.00 0.00 30 1003.4
20260508165502 18 232 8.0 37.0 0.00 0.00 0.00 30 1003.4
20260508165001 18 271 11.3 37.0 0.00 0.00 0.00 29 1003.6
20260508164602 18 294 9.7 27.4 0.00 0.00 0.00 30 1003.5
20260508164059 17 214 4.8 19.3 0.00 0.00 0.00 30 1003.7
20260508163559 17 194 8.0 24.1 0.00 0.00 0.00 31 1003.8
20260508163056 17 298 3.2 24.1 0.00 0.00 0.00 31 1003.8
20260508162555 17 250 8.0 17.7 0.00 0.00 0.00 32 1003.9
20260508162055 17 250 4.8 16.1 0.00 0.00 0.00 31 1003.9
20260508161553 17 220 8.0 17.7 0.00 0.00 0.00 30 1004.0
20260508161052 16 219 1.6 19.3 0.00 0.00 0.00 32 1004.0
20260508160551 16 220 11.3 19.3 0.00 0.00 0.00 32 1004.0
20260508160050 16 202 4.8 20.9 0.00 0.00 0.00 33 1004.0
20260508155549 16 218 9.7 20.9 0.00 0.00 0.00 31 1004.1
20260508155050 16 254 6.4 19.3 0.00 0.00 0.00 32 1004.1
20260508154606 16 261 3.2 14.5 0.00 0.00 0.00 34 1004.1
20260508154046 15 304 8.0 14.5 0.00 0.00 0.00 33 1004.2
20260508153545 15 234 4.8 14.5 0.00 0.00 0.00 34 1004.2
20260508153046 15 321 3.2 17.7 0.00 0.00 0.00 36 1004.2
20260508152543 15 175 9.7 19.3 0.00 0.00 0.00 34 1004.2
20260508152041 14 193 4.8 12.9 0.00 0.00 0.00 40 1004.2
20260508151640 13 208 8.0 12.9 0.00 0.00 0.00 39 1004.3
20260508151038 13 202 4.8 12.9 0.00 0.00 0.00 40 1004.3
20260508150538 13 220 3.2 16.1 0.00 0.00 0.00 40 1004.3
20260508150040 13 226 8.0 16.1 0.00 0.00 0.00 40 1004.5
20260508145537 13 216 6.4 20.9 0.00 0.00 0.00 41 1004.5
20260508145038 13 206 9.7 20.9 0.00 0.00 0.00 40 1004.6
20260508144539 13 205 11.3 17.7 0.00 0.00 0.00 40 1004.6
20260508144036 13 193 12.9 17.7 0.00 0.00 0.00 39 1004.6
20260508143538 13 224 4.8 19.3 0.00 0.00 0.00 39 1004.6
20260508143034 13 211 9.7 19.3 0.00 0.00 0.00 39 1004.6
20260508142534 13 185 9.7 16.1 0.00 0.00 0.00 39 1004.5
20260508142034 12 216 4.8 14.5 0.00 0.00 0.00 41 1004.5
20260508141533 12 215 8.0 14.5 0.00 0.00 0.00 41 1004.6
20260508141028 12 205 4.8 14.5 0.00 0.00 0.00 41 1004.7
20260508140528 12 183 6.4 14.5 0.00 0.00 0.00 41 1004.8
20260508140025 11 215 6.4 14.5 0.00 0.00 0.00 41 1004.8
20260508135524 11 180 9.7 16.1 0.00 0.00 0.00 41 1004.8
20260508135022 11 209 8.0 14.5 0.00 0.00 0.00 43 1004.9
20260508134521 11 187 6.4 14.5 0.00 0.00 0.00 44 1005.1
20260508134019 11 214 6.4 12.9 0.00 0.00 0.00 44 1005.2
20260508133518 11 198 4.8 11.3 0.00 0.00 0.00 45 1005.2
20260508133024 10 195 3.2 11.3 0.00 0.00 0.00 49 1005.2
20260508132517 10 212 3.2 9.7 0.00 0.00 0.00 50 1005.3
20260508132014 9 179 3.2 9.7 0.00 0.00 0.00 51 1005.3
20260508131512 9 211 3.2 6.4 0.00 0.00 0.00 52 1005.4
20260508131010 8 208 3.2 8.0 0.00 0.00 0.00 53 1005.4
20260508130508 8 194 3.2 9.7 0.00 0.00 0.00 53 1005.3
20260508130011 7 192 4.8 8.0 0.00 0.00 0.00 54 1005.5
20260508125506 7 179 1.6 9.7 0.00 0.00 0.00 55 1005.4
20260508125004 7 208 3.2 9.7 0.00 0.00 0.00 55 1005.5
20260508124504 7 169 3.2 8.0 0.00 0.00 0.00 56 1005.5
20260508124003 6 161 3.2 8.0 0.00 0.00 0.00 56 1005.6
20260508123501 6 178 1.6 4.8 0.00 0.00 0.00 57 1005.6
20260508123002 6 178 1.6 8.0 0.00 0.00 0.00 58 1005.6
20260508122501 5 175 1.6 8.0 0.00 0.00 0.00 59 1005.6
20260508122059 5 178 1.6 9.7 0.00 0.00 0.00 59 1005.5
20260508121559 5 188 1.6 6.4 0.00 0.00 0.00 59 1005.6
20260508121057 5 190 3.2 6.4 0.00 0.00 0.00 59 1005.6
20260508120556 5 185 1.6 6.4 0.00 0.00 0.00 59 1005.6
20260508120058 5 182 1.6 6.4 0.00 0.00 0.00 60 1005.7
20260508115556 4 182 1.6 6.4 0.00 0.00 0.00 61 1005.8
20260508115057 4 182 1.6 6.4 0.00 0.00 0.00 61 1005.6
20260508114554 3 180 3.2 8.0 0.00 0.00 0.00 61 1005.7
20260508114052 3 187 1.6 8.0 0.00 0.00 0.00 61 1005.8
20260508113551 3 191 4.8 8.0 0.00 0.00 0.00 61 1005.8
20260508113051 3 187 3.2 9.7 0.00 0.00 0.00 61 1005.8
20260508112550 3 177 3.2 8.0 0.00 0.00 0.00 61 1005.8
20260508112050 3 165 3.2 9.7 0.00 0.00 0.00 62 1005.8
20260508111552 3 171 3.2 8.0 0.00 0.00 0.00 62 1005.8
20260508111048 3 171 1.6 4.8 0.00 0.00 0.00 62 1005.9
20260508110547 3 169 0.0 4.8 0.00 0.00 0.00 62 1005.9
20260508110047 3 169 0.0 3.2 0.00 0.00 0.00 62 1006.1
20260508105548 3 169 0.0 3.2 0.00 0.00 0.00 61 1006.0
20260508105046 3 169 0.0 4.8 0.00 0.00 0.00 61 1006.1
20260508104546 3 169 1.6 8.0 0.00 0.00 0.00 61 1006.0
20260508104045 3 171 4.8 8.0 0.00 0.00 0.00 60 1006.0
20260508103545 3 160 3.2 8.0 0.00 0.00 0.00 60 1006.1
20260508103044 3 185 3.2 6.4 0.00 0.00 0.00 61 1006.1
20260508102542 3 169 3.2 8.0 0.00 0.00 0.00 62 1006.1
20260508102045 3 162 3.2 4.8 0.00 0.00 0.00 61 1006.2
20260508101542 3 161 0.0 3.2 0.00 0.00 0.00 62 1006.2
20260508101041 3 161 1.6 4.8 0.00 0.00 0.00 63 1006.2
20260508100540 3 161 1.6 8.0 0.00 0.00 0.00 63 1006.2
20260508100051 3 159 3.2 8.0 0.00 0.00 0.00 63 1006.4
20260508095540 3 122 1.6 4.8 0.00 0.00 0.00 64 1006.4
20260508095036 3 98 1.6 4.8 0.00 0.00 0.00 65 1006.4
20260508094539 4 53 0.0 3.2 0.00 0.00 0.00 65 1006.5
20260508094035 4 53 1.6 4.8 0.00 0.00 0.00 65 1006.5
20260508093534 4 53 1.6 4.8 0.00 0.00 0.00 65 1006.6
20260508093034 4 351 0.0 0.0 0.00 0.00 0.00 65 1006.6
20260508092534 4 355 0.0 0.0 0.00 0.00 0.00 64 1006.6
20260508092032 4 355 0.0 0.0 0.00 0.00 0.00 63 1006.7
20260508091533 4 355 0.0 0.0 0.00 0.00 0.00 64 1006.6
20260508091034 4 355 0.0 0.0 0.00 0.00 0.00 66 1006.7
20260508090535 3 355 0.0 0.0 0.00 0.00 0.00 65 1006.8
20260508090048 3 355 0.0 0.0 0.00 0.00 0.00 66 1006.8
20260508085531 3 355 0.0 0.0 0.00 0.00 0.00 65 1006.8
20260508085031 3 355 0.0 0.0 0.00 0.00 0.00 65 1006.8
20260508084531 3 355 0.0 0.0 0.00 0.00 0.00 65 1006.8
20260508084030 3 355 0.0 0.0 0.00 0.00 0.00 65 1006.8
20260508083533 3 355 0.0 0.0 0.00 0.00 0.00 65 1006.8
20260508083030 3 355 0.0 0.0 0.00 0.00 0.00 65 1006.8
20260508082528 3 355 0.0 0.0 0.00 0.00 0.00 64 1006.8
20260508082028 3 355 0.0 0.0 0.00 0.00 0.00 63 1006.7
20260508081532 3 355 0.0 0.0 0.00 0.00 0.00 62 1006.8
20260508081027 3 355 0.0 1.6 0.00 0.00 0.00 62 1006.8
20260508080531 3 355 0.0 1.6 0.00 0.00 0.00 61 1007.0
20260508080025 3 355 0.0 1.6 0.00 0.00 0.00 60 1007.0
20260508075525 4 355 0.0 1.6 0.00 0.00 0.00 60 1007.0
20260508075025 4 355 0.0 3.2 0.00 0.00 0.00 60 1007.0
20260508074526 4 355 1.6 3.2 0.00 0.00 0.00 60 1007.0
20260508074023 4 355 0.0 3.2 0.00 0.00 0.00 59 1007.1
20260508073523 4 355 0.0 1.6 0.00 0.00 0.00 59 1007.0
20260508073025 4 355 0.0 3.2 0.00 0.00 0.00 59 1007.1
20260508072521 4 355 1.6 3.2 0.00 0.00 0.00 59 1007.1
20260508072021 4 355 1.6 3.2 0.00 0.00 0.00 60 1007.1
20260508071526 4 355 0.0 4.8 0.00 0.00 0.00 60 1007.2
20260508071022 4 355 1.6 4.8 0.00 0.00 0.00 60 1007.2
20260508070520 4 355 0.0 4.8 0.00 0.00 0.00 61 1007.3
20260508070020 4 355 0.0 3.2 0.00 0.00 0.00 61 1007.3
20260508065520 4 355 0.0 3.2 0.00 0.00 0.00 61 1007.3
20260508065023 4 355 1.6 3.2 0.00 0.00 0.00 61 1007.3
20260508064519 4 19 0.0 0.0 0.00 0.00 0.00 57 1007.3
20260508064017 3 19 0.0 0.0 0.00 0.00 0.00 57 1007.3
20260508063519 3 19 0.0 0.0 0.00 0.00 0.00 57 1007.2
20260508063016 3 19 0.0 0.0 0.00 0.00 0.00 56 1007.3
20260508062514 4 19 0.0 1.6 0.00 0.00 0.00 55 1007.2
20260508062014 4 21 0.0 1.6 0.00 0.00 0.00 55 1007.3
20260508061514 4 26 0.0 0.0 0.00 0.00 0.00 54 1007.2
20260508061014 4 26 0.0 0.0 0.00 0.00 0.00 54 1007.3
20260508060514 4 26 0.0 0.0 0.00 0.00 0.00 55 1007.3
20260508060013 4 26 0.0 0.0 0.00 0.00 0.00 55 1007.3
20260508055512 4 26 0.0 0.0 0.00 0.00 0.00 54 1007.3
20260508055013 4 26 0.0 0.0 0.00 0.00 0.00 54 1007.3
20260508054511 4 26 0.0 0.0 0.00 0.00 0.00 53 1007.3
20260508054013 5 26 0.0 0.0 0.00 0.00 0.00 53 1007.3